User: anonymous   Login
Location: Vancouver
(49.2500°N, 123.1330°W)
Time: 00:51:14
(UTC-08:00)
Language:

Iridium 35 - Orbit

View from above orbital plane
View from above orbital plane
View from above satellite
View from above satellite

Ground track
Ground track

The orbit data is extracted from the following two-line orbital elements,

1 24966U 97056B   15061.21528469  .00000505  00000-0  17318-3 0  9997
2 24966 086.3975 308.9715 0002019 083.9893 276.1533 14.34216463912421
Epoch (UTC): 02 March 2015 05:10:00
Eccentricity: 0.0002019
inclination: 86.3975°
perigee height: 776 km
apogee height: 779 km
right ascension of ascending node: 308.9715°
argument of perigee: 83.9893°
revolutions per day: 14.34216463
mean anomaly at epoch: 276.1533°
orbit number at epoch: 91242

The dashed part of the orbit path shows where the satellite is in the earth's shadow,  

DLR